Simultaneous Nadir Overpasses (SNOs) Predictions

Prediction of SNOs between AURA and NPP Satellite Orbit:

Table of predicted SNOs for the next 14.0 days since TLE Epoch: 1/15/2022
Index Date (AURA) Time (AURA) Lat,Lon (AURA) SZA (AURA ) Date (NPP) Time (NPP) Lat,Lon (NPP) SZA (NPP ) Distance(km) Time Diff (sec)
1 01/17/2022 10:35:37 79.39, -82.76 113.34 01/17/2022 10:34:27 79.39, -82.75 113.39 0.30 70
2 01/17/2022 11:24:56 -79.69, 87.04 67.11 01/17/2022 11:25:03 -79.70, 87.17 67.14 2.58 7
3 01/20/2022 02:52:04 79.52, 34.07 112.64 01/20/2022 02:51:14 79.53, 34.17 112.66 2.21 50
4 01/20/2022 03:41:27 -79.68,-157.17 67.60 01/20/2022 03:41:55 -79.68,-157.25 67.61 1.77 28
5 01/22/2022 19:08:33 79.54, 150.04 112.06 01/22/2022 19:08:04 79.53, 150.00 112.09 0.90 29
6 01/22/2022 19:57:53 -79.80, -40.35 68.34 01/22/2022 19:58:41 -79.81, -40.27 68.39 1.69 48
7 01/25/2022 11:25:02 79.58, -93.79 111.40 01/25/2022 11:24:54 79.57, -93.91 111.43 2.52 8
8 01/25/2022 12:14:22 -79.84, 75.84 69.01 01/25/2022 12:15:31 -79.84, 75.85 69.06 0.29 69
9 01/28/2022 02:52:09 -79.47,-146.32 69.09 01/28/2022 02:51:04 -79.47,-146.25 69.05 1.62 65



Historial Predications of SNOs between AURA and NPP
